Regional Weather Roundup
Issued by NWS Green Bay, WI

Home | Current Version | Previous Version | Graphics & Text | Print | Product List | Glossary Off
Versions: 1 2 3 4 5 6 7 8 9 10 11 12 13 14 15 16 17 18 19 20 21 22 23 24 25 26 27 28 29 30 31 32 33 34 35 36 37 38 39 40 41 42 43 44 45 46 47 48 49 50

000
ASUS43 KGRB 202200
RWRGRB

NORTH-CENTRAL AND NORTHEAST WISCONSIN REGIONAL WEATHER ROUNDUP
NATIONAL WEATHER SERVICE GREEN BAY WI
400 PM CST MON NOV 20 2017

WIZ005-009-010>012-018-019-202300-
NORTH CENTRAL WISCONSIN

CITY           SKY/WX    TMP DP  RH WIND       PRES   REMARKS
IRONWOOD       CLOUDY    41  30  65 S13       29.38S
MANITOWISH WTR NOT AVBL
ARBOR VITAE    NOT AVBL
EAGLE RIVER    CLOUDY    40  27  58 S8        29.44S
LAND O LAKES   NOT AVBL
RHINELANDER    CLOUDY    41  28  60 S9        29.45F
PHILLIPS       CLOUDY    41  29  63 S10       29.44R
ANTIGO         NOT AVBL
TOMAHAWK       NOT AVBL
MERRILL        CLOUDY    43  29  58 S5        29.48F
$$

WIZ013-073-202300-
NORTHEAST WISCONSIN

CITY           SKY/WX    TMP DP  RH WIND       PRES   REMARKS
IRON MOUNTAIN  CLOUDY    37  26  64 SE8       29.48F
MARINETTE      PTCLDY    41  33  73 S10       29.56F
$$

WIZ017-030-035>037-045-202300-
CENTRAL WISCONSIN

CITY           SKY/WX    TMP DP  RH WIND       PRES   REMARKS
MEDFORD        NOT AVBL
WAUSAU         PTCLDY    44  29  55 S10       29.48F
MOSINEE        CLOUDY    43  30  61 S9        29.51F
MARSHFIELD     PTCLDY    46  28  49 SW9       29.49R
WISC RAPIDS    CLOUDY    47  30  51 SW13      29.54S
STEVENS POINT  NOT AVBL
WAUPACA        NOT AVBL
SHAWANO        CLOUDY    45  31  59 CALM      29.54S
CLINTONVILLE   NOT AVBL
WAUTOMA        CLOUDY    47  30  51 S7        29.55F
$$

WIZ038-039-048-051-202300-
FOX VALLEY

CITY           SKY/WX    TMP DP  RH WIND       PRES   REMARKS
NWS GREEN BAY  CLOUDY    45  33  63 S13       29.56F
APPLETON       PTCLDY    45  28  53 S29       29.55S
OSHKOSH        CLOUDY    45  32  60 S15       29.56F
FOND DU LAC    CLOUDY    47  30  51 S15G25    29.57F
$$

WIZ022-050-052-202300-
EAST CENTRAL WISCONSIN

CITY           SKY/WX    TMP DP  RH WIND       PRES   REMARKS
EPHRAIM        FAIR      40  33  76 S12G23    29.54F
WASHINGTON ISL NOT AVBL
STURGEON BAY   CLOUDY    41  34  76 S17G25    29.55F
MANITOWOC      CLOUDY    43  34  70 S15       29.59F
SHEBOYGAN      CLOUDY    45  33  63 S10       29.60F
$$

LMZ563-521-522-541>543-202300-
LAKESHORE

STATION/POSITION TIME  TEMP    WIND        PRES    VSBY  WAVE
                       AIR SEA DIR/SP/G                  HT/PER
                 (UTC) (F)     (DEG/KT/KT) (MB)    (MI)  (FT/S)
SHEBOYGAN LKSHOR 2100   43     180/ 17/ 18 1003.2F
KEWAUNEE LKSHORE 2130   42     180/ 19/ 23 1001.2F
NORTHPORT PIER   2140   42     160/ 10/ 18 1001.0F
N MID LAKE BUOY  2050   44 48  190/ 23/ 29 1002.9F         5/ 6
MENOMINEE LKSHOR 2130   42     160/ 12/ 16 1000.6F
$$




USA.gov is the U.S. government's official web portal to all federal, state and local government web resources and services.